Location: *
(2.5500°S, 65.9667°W)
Time: 11:32:05
(UTC+00:00)

Cosmos 1725 Rocket - Pass Details

Date: 26 October 2021
Orbit: 961 x 991 km, 82.9° (Epoch: 28 November)

Event Time Altitude Azimuth Distance (km) Brightness Sun altitude
Rises 23:22:05 0° 176° (S) 3,698 7.2 -17.5°
Reaches altitude 10° 23:24:39 10° 172° (S) 2,744 6.4 -18.1°
Maximum altitude 23:30:50 60° 93° (E) 1,116 4.0 -19.6°
Enters shadow 23:36:39 12° 15° (NNE) 2,604 5.9 -21.0°
